TimeMDT,TemperatureF,Dew PointF,Humidity,Sea Level PressureIn,VisibilityMPH,Wind Direction,Wind SpeedMPH,Gust SpeedMPH,PrecipitationIn,Events,Conditions,WindDirDegrees,DateUTC
12:53 AM,41.0,34.0,76,30.22,10.0,South,11.5,-,N/A,,Clear,190,2011-10-30 06:53:00
1:53 AM,39.9,34.0,79,30.24,10.0,South,8.1,-,N/A,,Clear,190,2011-10-30 07:53:00
2:53 AM,39.0,33.1,79,30.24,10.0,SSW,10.4,-,N/A,,Clear,200,2011-10-30 08:53:00
3:53 AM,37.0,32.0,82,30.25,10.0,SSW,8.1,-,N/A,,Clear,200,2011-10-30 09:53:00
4:53 AM,34.0,30.9,89,30.27,10.0,Calm,Calm,-,N/A,,Clear,0,2011-10-30 10:53:00
5:53 AM,30.0,27.0,88,30.30,10.0,NNE,3.5,-,N/A,,Clear,20,2011-10-30 11:53:00
6:53 AM,30.0,27.0,88,30.32,10.0,ENE,3.5,-,N/A,,Clear,60,2011-10-30 12:53:00
7:53 AM,28.0,25.0,88,30.34,10.0,NE,5.8,-,N/A,,Clear,50,2011-10-30 13:53:00
8:53 AM,28.9,25.0,85,30.36,10.0,NE,4.6,-,N/A,,Clear,40,2011-10-30 14:53:00
9:53 AM,35.1,28.9,78,30.36,10.0,ENE,3.5,-,N/A,,Clear,70,2011-10-30 15:53:00
10:53 AM,42.1,32.0,67,30.35,10.0,Calm,Calm,-,N/A,,Clear,0,2011-10-30 16:53:00
11:53 AM,48.0,35.1,61,30.32,10.0,SSW,12.7,-,N/A,,Clear,200,2011-10-30 17:53:00
12:53 PM,50.0,35.1,57,30.30,10.0,SW,12.7,21.9,N/A,,Clear,220,2011-10-30 18:53:00
1:53 PM,53.1,34.0,48,30.27,10.0,SSW,13.8,19.6,N/A,,Clear,210,2011-10-30 19:53:00
2:53 PM,55.0,34.0,45,30.25,10.0,SW,10.4,-,N/A,,Clear,220,2011-10-30 20:53:00
3:53 PM,55.0,32.0,42,30.22,10.0,SW,9.2,-,N/A,,Clear,220,2011-10-30 21:53:00
4:53 PM,54.0,33.1,45,30.22,10.0,WSW,9.2,-,N/A,,Clear,240,2011-10-30 22:53:00
5:53 PM,53.1,33.1,47,30.21,10.0,SW,5.8,-,N/A,,Clear,220,2011-10-30 23:53:00
6:00 PM,-9999,-9999,N/A,-9999,-9999.0,North,-9999.0,-,N/A,,Unknown,0,2011-10-31 00:00:00
6:53 PM,48.0,33.1,56,30.22,10.0,Calm,Calm,-,N/A,,Clear,0,2011-10-31 00:53:00
7:53 PM,42.1,33.1,70,30.25,10.0,Calm,Calm,-,N/A,,Clear,0,2011-10-31 01:53:00
8:53 PM,37.9,30.9,76,30.25,10.0,Calm,Calm,-,N/A,,Clear,0,2011-10-31 02:53:00
9:53 PM,36.0,30.0,79,30.24,10.0,North,3.5,-,N/A,,Clear,10,2011-10-31 03:53:00
10:53 PM,42.1,32.0,67,30.19,10.0,Calm,Calm,-,N/A,,Clear,0,2011-10-31 04:53:00
11:53 PM,32.0,28.0,85,30.20,10.0,NE,6.9,-,N/A,,Clear,50,2011-10-31 05:53:00